Bookmark and Share
Track history (hours):
 

Prudentia

Last reported at 2014-Apr-17 06:20 UTC. Time now 2014-Apr-20 15:56 UTC.
Position N 51°51' E 005°50'.

Length 70 m; draft 1.8 m.

Type: Ship. MMSI: 244660779.

NotesDate/timePositionNaut miles runAvg speedWind from/ knotsBaromVisibWave heightAir tempDewpointWater temp
2014-Apr-17 06:20N 51°51' E 005°50'3 3.6
2014-Apr-17 05:33N 51°53' E 005°46'5 5.0
2014-Apr-17 04:32N 51°54' E 005°38'3 3.2
2014-Apr-17 03:33N 51°54' E 005°33'0 0.0
2014-Apr-17 02:33N 51°54' E 005°33'0 0.0
2014-Apr-17 01:33N 51°54' E 005°33'0 0.0
2014-Apr-17 00:33N 51°54' E 005°33'0 0.0
2014-Apr-16 23:33N 51°54' E 005°33'0 0.0
2014-Apr-16 22:33N 51°54' E 005°33'0 0.0
2014-Apr-16 21:33N 51°54' E 005°33'0 0.0
2014-Apr-16 20:33N 51°54' E 005°33'0 0.0
2014-Apr-16 19:33N 51°54' E 005°33'0 0.0
2014-Apr-16 18:33N 51°54' E 005°33'0 0.0
2014-Apr-16 17:33N 51°54' E 005°33'3 2.9
2014-Apr-16 16:33N 51°53' E 005°28'4 4.3
2014-Apr-16 15:33N 51°56' E 005°23'6 5.5
2014-Apr-16 14:33N 51°59' E 005°15'4 4.4
2014-Apr-16 13:33N 51°60' E 005°08'3 3.1
2014-Apr-16 12:33N 51°59' E 005°03'5 5.3
2014-Apr-16 11:33N 51°57' E 004°55'6 6.3
2014-Apr-16 10:33N 51°55' E 004°46'6 6.1
2014-Apr-16 09:33N 51°54' E 004°36'4 4.3
2014-Apr-16 08:33N 51°55' E 004°29'3 3.1
2014-Apr-16 07:33N 51°53' E 004°25'0 0.0
2014-Apr-16 06:33N 51°53' E 004°25'0 0.4
2014-Apr-16 05:33N 51°53' E 004°26'0 0.0
2014-Apr-16 04:33N 51°53' E 004°26'0 0.0
2014-Apr-16 03:33N 51°53' E 004°26'0 0.0
2014-Apr-16 02:33N 51°53' E 004°26'0 0.0
2014-Apr-16 01:33N 51°53' E 004°26'0 0.0
2014-Apr-16 00:33N 51°53' E 004°26'0 0.0
2014-Apr-15 23:33N 51°53' E 004°26'0 0.0
2014-Apr-15 22:33N 51°53' E 004°26'0 0.1
2014-Apr-15 21:33N 51°53' E 004°25'4 3.8
2014-Apr-15 20:33N 51°55' E 004°30'0 0.0
2014-Apr-15 19:33N 51°55' E 004°30'0 0.0
2014-Apr-15 18:33N 51°55' E 004°30'0 0.0
2014-Apr-15 17:33N 51°55' E 004°30'0 0.0
2014-Apr-15 16:33N 51°55' E 004°30'0 0.1
2014-Apr-15 14:18N 51°55' E 004°31'5 2.6
2014-Apr-15 12:34N 51°53' E 004°37'7 7.4
2014-Apr-15 11:34N 51°46' E 004°38'7 6.8
2014-Apr-15 10:30N 51°42' E 004°28'3 1.3
2014-Apr-15 08:29N 51°41' E 004°24'0 0.0
2014-Apr-15 05:30N 51°41' E 004°24'0 0.0
2014-Apr-15 03:34N 51°41' E 004°24'0 0.0
2014-Apr-15 02:34N 51°41' E 004°24'0 0.0
2014-Apr-15 01:34N 51°41' E 004°24'0 0.0
2014-Apr-15 00:29N 51°41' E 004°24'0 0.0
2014-Apr-14 23:34N 51°41' E 004°24'0 0.0
2014-Apr-14 22:34N 51°41' E 004°24'0 0.0
2014-Apr-14 21:32N 51°41' E 004°24'0 0.0
2014-Apr-14 19:32N 51°41' E 004°24'0 0.0
2014-Apr-14 18:32N 51°41' E 004°24'0 0.0
2014-Apr-14 17:31N 51°41' E 004°24'0 0.0
2014-Apr-14 16:34N 51°41' E 004°24'0 0.0
2014-Apr-13 21:33N 51°41' E 004°24'0 0.0
2014-Apr-13 04:27N 51°41' E 004°24'0 0.0
2014-Apr-13 03:08N 51°41' E 004°24'0 0.0
2014-Apr-13 02:31N 51°41' E 004°24'0 0.0
2014-Apr-13 01:33N 51°41' E 004°24'0 0.0
2014-Apr-13 00:28N 51°41' E 004°24'0 0.0
2014-Apr-12 23:31N 51°41' E 004°24'0 0.0
2014-Apr-12 22:21N 51°41' E 004°24'0 0.0
2014-Apr-12 21:28N 51°41' E 004°24'0 0.0
2014-Apr-12 20:30N 51°41' E 004°24'0 0.0
2014-Apr-12 19:26N 51°41' E 004°24'0 0.0
2014-Apr-12 17:33N 51°41' E 004°24'0 0.0
2014-Apr-12 16:15N 51°41' E 004°24'2 1.6
2014-Apr-12 15:06N 51°40' E 004°22'6 7.1
2014-Apr-12 14:18N 51°39' E 004°13'8 4.8
2014-Apr-12 12:33N 51°36' E 004°01'5 4.6
2014-Apr-12 11:33N 51°31' E 004°01'4 4.2
2014-Apr-12 10:34N 51°27' E 004°01'8 8.0
2014-Apr-12 09:32N 51°21' E 003°52'2 2.3
2014-Apr-12 08:34N 51°20' E 003°49'0 0.0
2014-Apr-12 07:33N 51°20' E 003°49'2 2.0
2014-Apr-12 06:24N 51°17' E 003°50'5 4.5
2014-Apr-12 05:15N 51°13' E 003°48'0 0.0
2014-Apr-12 04:22N 51°13' E 003°48'0 0.0
2014-Apr-12 03:22N 51°13' E 003°48'0 0.0
2014-Apr-12 02:28N 51°13' E 003°48'0 0.0
2014-Apr-12 01:25N 51°13' E 003°48'0 0.0
2014-Apr-12 00:05N 51°13' E 003°48'0 0.0
2014-Apr-11 23:25N 51°13' E 003°48'0 0.0
2014-Apr-11 22:08N 51°13' E 003°48'0 0.0
2014-Apr-11 21:14N 51°13' E 003°48'0 0.0
2014-Apr-11 20:30N 51°13' E 003°48'0 0.1
2014-Apr-11 19:28N 51°12' E 003°48'7 7.5
2014-Apr-11 18:34N 51°06' E 003°43'2 2.3
2014-Apr-11 17:33N 51°05' E 003°40'0 0.1
2014-Apr-11 16:33N 51°05' E 003°40'0 0.0
2014-Apr-11 15:33N 51°05' E 003°40'5 5.4
2014-Apr-11 14:33N 51°05' E 003°31'3 2.6
2014-Apr-11 13:24N 51°07' E 003°27'0 0.1
2014-Apr-11 12:30N 51°07' E 003°27'0 0.0
2014-Apr-11 11:29N 51°07' E 003°27'0 0.0
2014-Apr-11 10:33N 51°07' E 003°27'0 0.0
2014-Apr-11 09:32N 51°07' E 003°27'0 0.0
2014-Apr-11 08:33N 51°07' E 003°27'0 0.0
2014-Apr-11 07:32N 51°07' E 003°27'0 0.0
2014-Apr-11 06:33N 51°07' E 003°27'0 0.0
2014-Apr-11 05:32N 51°07' E 003°27'1 0.9
2014-Apr-11 04:29N 51°06' E 003°28'4 4.0
2014-Apr-11 03:33N 51°06' E 003°34'4 3.7
2014-Apr-11 02:33N 51°05' E 003°40'0 0.2
2014-Apr-11 01:33N 51°05' E 003°41'0 0.0
2014-Apr-11 00:32N 51°05' E 003°41'0 0.0
2014-Apr-10 23:33N 51°05' E 003°41'1 0.8
2014-Apr-10 22:33N 51°06' E 003°42'7 6.3
2014-Apr-10 21:31N 51°11' E 003°48'9 4.7
2014-Apr-10 19:33N 51°20' E 003°49'4 4.1
2014-Apr-10 18:31N 51°22' E 003°55'6 6.3
2014-Apr-10 17:34N 51°27' E 004°01'5 4.9
2014-Apr-10 16:33N 51°32' E 003°59'11 4.6
2014-Apr-10 14:15N 51°39' E 004°12'10 5.5
2014-Apr-10 12:26N 51°42' E 004°28'7 7.5
2014-Apr-10 11:30N 51°45' E 004°38'7 7.4
2014-Apr-10 10:33N 51°52' E 004°38'6 5.5
2014-Apr-10 09:33N 51°55' E 004°46'7 7.1
2014-Apr-10 08:33N 51°58' E 004°56'7 6.6
2014-Apr-10 07:33N 52°00' E 005°06'3 3.3
2014-Apr-10 06:33N 52°04' E 005°06'7 7.0
2014-Apr-10 05:33N 52°10' E 004°60'7 7.3
2014-Apr-10 04:33N 52°17' E 005°01'7 6.7
2014-Apr-10 03:34N 52°23' E 004°57'3 2.7
2014-Apr-10 02:33N 52°24' E 004°52'0 0.0
2014-Apr-10 01:33N 52°24' E 004°52'0 0.2
2014-Apr-10 00:33N 52°24' E 004°52'0 0.0
2014-Apr-09 23:33N 52°24' E 004°52'0 0.0
2014-Apr-09 22:34N 52°24' E 004°52'0 0.2
2014-Apr-09 21:33N 52°24' E 004°52'0 0.0
2014-Apr-09 20:33N 52°24' E 004°52'0 0.0
2014-Apr-09 19:33N 52°24' E 004°52'0 0.0
2014-Apr-09 18:33N 52°24' E 004°52'0 0.4
2014-Apr-09 17:34N 52°24' E 004°53'7 6.9
2014-Apr-09 16:33N 52°20' E 005°01'9 8.8
2014-Apr-09 15:33N 52°11' E 004°60'8 8.1
2014-Apr-09 14:33N 52°04' E 005°06'8 8.0
2014-Apr-09 13:33N 51°59' E 005°16'4 4.3
2014-Apr-09 12:33N 51°58' E 005°23'3 2.8
2014-Apr-09 11:33N 51°59' E 005°27'7 7.4
2014-Apr-09 10:33N 51°58' E 005°39'0 0.2
2014-Apr-09 09:33N 51°58' E 005°40'0 0.0
2014-Apr-09 08:33N 51°58' E 005°40'0 0.0
2014-Apr-09 07:33N 51°58' E 005°40'0 0.0
2014-Apr-09 06:33N 51°58' E 005°40'0 0.0
2014-Apr-09 05:33N 51°58' E 005°40'0 0.0
2014-Apr-09 04:33N 51°58' E 005°40'0 0.0
2014-Apr-09 03:28N 51°58' E 005°40'0 0.0
2014-Apr-09 02:33N 51°58' E 005°40'0 0.0
2014-Apr-09 01:33N 51°58' E 005°40'0 0.0
2014-Apr-09 00:33N 51°58' E 005°40'0 0.0
2014-Apr-08 23:33N 51°58' E 005°40'0 0.0
2014-Apr-08 22:33N 51°58' E 005°40'0 0.0
2014-Apr-08 21:33N 51°58' E 005°40'0 0.0
2014-Apr-08 20:32N 51°58' E 005°40'0 0.0
2014-Apr-08 19:33N 51°58' E 005°40'0 0.0
2014-Apr-08 18:33N 51°58' E 005°40'0 0.0
2014-Apr-08 17:30N 51°58' E 005°40'0 0.0
2014-Apr-08 16:33N 51°58' E 005°40'0 0.0
2014-Apr-08 15:33N 51°58' E 005°40'0 0.0
2014-Apr-08 14:33N 51°58' E 005°40'0 0.0
2014-Apr-08 13:33N 51°58' E 005°40'0 0.0
2014-Apr-08 12:33N 51°58' E 005°40'0 0.0
2014-Apr-08 11:33N 51°58' E 005°40'0 0.0
2014-Apr-08 10:33N 51°58' E 005°40'0 0.0
2014-Apr-08 09:32N 51°58' E 005°40'0 0.0
2014-Apr-08 08:31N 51°58' E 005°40'0 0.0
2014-Apr-08 07:30N 51°58' E 005°40'0 0.0
2014-Apr-08 06:30N 51°58' E 005°40'0 0.0
2014-Apr-08 05:33N 51°58' E 005°40'0 0.0
2014-Apr-08 04:33N 51°58' E 005°40'0 0.0
2014-Apr-08 03:33N 51°58' E 005°40'0 0.0
2014-Apr-08 02:33N 51°58' E 005°40'0 0.0
2014-Apr-08 01:33N 51°58' E 005°40'0 0.0
2014-Apr-08 00:33N 51°58' E 005°40'0 0.0
2014-Apr-07 23:32N 51°58' E 005°40'0 0.0
2014-Apr-07 22:33N 51°58' E 005°40'0 0.0
2014-Apr-07 21:33N 51°58' E 005°40'0 0.0
2014-Apr-07 20:33N 51°58' E 005°40'0 0.0
2014-Apr-07 19:33N 51°58' E 005°40'0 0.0
2014-Apr-07 17:30N 51°58' E 005°40'0 0.0
2014-Apr-07 16:32N 51°58' E 005°40'0 0.0
2014-Apr-07 15:33N 51°58' E 005°40'0 0.0
2014-Apr-07 14:33N 51°58' E 005°40'0 0.0
2014-Apr-07 13:33N 51°58' E 005°40'0 0.0
2014-Apr-07 12:33N 51°58' E 005°40'0 0.0
2014-Apr-07 11:33N 51°58' E 005°40'0 0.0
2014-Apr-07 10:33N 51°58' E 005°40'0 0.0
2014-Apr-07 09:34N 51°58' E 005°40'0 0.0
2014-Apr-07 08:32N 51°58' E 005°40'0 0.0
2014-Apr-07 07:33N 51°58' E 005°40'0 0.0
2014-Apr-07 06:33N 51°58' E 005°40'  

Dump ship's entire track history

sailing weather and tide predictions

Prudentia — PB4900 — position and weather